Time,TemperatureF,DewpointF,PressureIn,WindDirection,WindDirectionDegrees,WindSpeedMPH,WindSpeedGustMPH,Humidity,HourlyPrecipIn,Conditions,Clouds,dailyrainin,SoftwareType,DateUTC
2013-02-25 00:00:00,29.8,22.5,30.05,North,0,0.0,0.0,74,0.00,,,0.00,WUHU21623XXSP,2013-02-25 06:00:00,
2013-02-25 00:05:00,29.8,22.5,30.05,North,0,0.0,0.0,74,0.00,,,0.00,WUHU21623XXSP,2013-02-25 06:05:00,
2013-02-25 00:12:00,29.3,22.0,30.05,North,0,0.0,0.0,74,0.00,,,0.00,WUHU21623XXSP,2013-02-25 06:12:00,
2013-02-25 00:17:00,29.1,22.2,30.05,North,0,0.0,0.0,75,0.00,,,0.00,WUHU21623XXSP,2013-02-25 06:17:00,
2013-02-25 00:22:00,29.1,22.2,30.06,North,0,0.0,0.0,75,0.00,,,0.00,WUHU21623XXSP,2013-02-25 06:22:00,
2013-02-25 00:27:00,28.9,22.0,30.06,North,0,0.0,0.0,75,0.00,,,0.00,WUHU21623XXSP,2013-02-25 06:27:00,
2013-02-25 00:32:00,28.6,21.6,30.06,North,0,0.0,0.0,75,0.00,,,0.00,WUHU21623XXSP,2013-02-25 06:32:00,
2013-02-25 00:37:00,28.2,21.3,30.06,North,0,0.0,0.0,75,0.00,,,0.00,WUHU21623XXSP,2013-02-25 06:37:00,
2013-02-25 00:42:00,27.7,21.1,30.06,North,0,0.0,0.0,76,0.00,,,0.00,WUHU21623XXSP,2013-02-25 06:42:00,
2013-02-25 00:47:00,27.3,20.9,30.06,North,0,0.0,0.0,76,0.00,,,0.00,WUHU21623XXSP,2013-02-25 06:47:00,
2013-02-25 00:52:00,26.8,20.3,30.06,North,0,0.0,0.0,76,0.00,,,0.00,WUHU21623XXSP,2013-02-25 06:52:00,
2013-02-25 00:57:00,26.4,19.8,30.05,North,0,0.0,0.0,76,0.00,,,0.00,WUHU21623XXSP,2013-02-25 06:57:00,
2013-02-25 01:02:00,26.4,19.8,30.06,North,0,0.0,0.0,76,0.00,,,0.00,WUHU21623XXSP,2013-02-25 07:02:00,
2013-02-25 01:08:00,26.1,19.5,30.06,North,0,0.0,0.0,76,0.00,,,0.00,WUHU21623XXSP,2013-02-25 07:08:00,
2013-02-25 01:13:00,25.9,19.3,30.06,North,0,0.0,0.0,76,0.00,,,0.00,WUHU21623XXSP,2013-02-25 07:13:00,
2013-02-25 01:18:00,25.5,18.9,30.06,North,0,0.0,0.0,76,0.00,,,0.00,WUHU21623XXSP,2013-02-25 07:18:00,
2013-02-25 01:23:00,25.5,19.3,30.06,North,0,0.0,0.0,77,0.00,,,0.00,WUHU21623XXSP,2013-02-25 07:23:00,
2013-02-25 01:28:00,25.5,19.3,30.06,North,0,0.0,0.0,77,0.00,,,0.00,WUHU21623XXSP,2013-02-25 07:28:00,
2013-02-25 01:33:00,25.0,18.9,30.06,North,0,0.0,0.0,77,0.00,,,0.00,WUHU21623XXSP,2013-02-25 07:33:00,
2013-02-25 01:38:00,25.0,18.8,30.06,North,0,0.0,0.0,78,0.00,,,0.00,WUHU21623XXSP,2013-02-25 07:38:00,
2013-02-25 01:43:00,24.6,18.8,30.06,North,0,0.0,0.0,78,0.00,,,0.00,WUHU21623XXSP,2013-02-25 07:43:00,
2013-02-25 01:48:00,24.4,18.6,30.06,North,0,0.0,0.0,78,0.00,,,0.00,WUHU21623XXSP,2013-02-25 07:48:00,
2013-02-25 01:53:00,24.3,18.6,30.06,North,0,0.0,0.0,78,0.00,,,0.00,WUHU21623XXSP,2013-02-25 07:53:00,
2013-02-25 01:58:00,24.1,18.2,30.06,North,0,0.0,0.0,78,0.00,,,0.00,WUHU21623XXSP,2013-02-25 07:58:00,
2013-02-25 02:03:00,23.9,18.2,30.05,North,0,0.0,0.0,79,0.00,,,0.00,WUHU21623XXSP,2013-02-25 08:03:00,
2013-02-25 02:08:00,23.9,18.4,30.05,North,0,0.0,0.0,79,0.00,,,0.00,WUHU21623XXSP,2013-02-25 08:08:00,
2013-02-25 02:13:00,23.7,18.2,30.04,North,0,0.0,0.0,79,0.00,,,0.00,WUHU21623XXSP,2013-02-25 08:13:00,
2013-02-25 02:18:00,23.5,18.2,30.03,North,0,0.0,0.0,79,0.00,,,0.00,WUHU21623XXSP,2013-02-25 08:18:00,
2013-02-25 02:23:00,23.5,18.0,30.03,North,0,0.0,0.0,79,0.00,,,0.00,WUHU21623XXSP,2013-02-25 08:23:00,
2013-02-25 02:28:00,23.5,18.0,30.03,North,0,0.0,0.0,79,0.00,,,0.00,WUHU21623XXSP,2013-02-25 08:28:00,
2013-02-25 02:33:00,23.5,18.0,30.03,North,0,0.0,0.0,79,0.00,,,0.00,WUHU21623XXSP,2013-02-25 08:33:00,
2013-02-25 02:38:00,23.5,18.3,30.03,North,0,0.0,0.0,80,0.00,,,0.00,WUHU21623XXSP,2013-02-25 08:38:00,
2013-02-25 02:43:00,23.7,18.5,30.03,North,0,0.0,0.0,80,0.00,,,0.00,WUHU21623XXSP,2013-02-25 08:43:00,
2013-02-25 02:48:00,23.9,18.7,30.03,North,0,0.0,0.0,80,0.00,,,0.00,WUHU21623XXSP,2013-02-25 08:48:00,
2013-02-25 02:53:00,24.1,18.9,30.03,North,0,0.0,0.0,80,0.00,,,0.00,WUHU21623XXSP,2013-02-25 08:53:00,
2013-02-25 02:58:00,24.4,19.2,30.02,North,0,0.0,0.0,80,0.00,,,0.00,WUHU21623XXSP,2013-02-25 08:58:00,
2013-02-25 03:03:00,24.6,19.7,30.04,North,0,0.0,0.0,81,0.00,,,0.00,WUHU21623XXSP,2013-02-25 09:03:00,
2013-02-25 03:08:00,24.6,19.7,30.04,North,0,0.0,0.0,81,0.00,,,0.00,WUHU21623XXSP,2013-02-25 09:08:00,
2013-02-25 03:13:00,24.6,19.7,30.03,North,0,0.0,0.0,81,0.00,,,0.00,WUHU21623XXSP,2013-02-25 09:13:00,
2013-02-25 03:18:00,24.4,19.5,30.04,North,0,0.0,0.0,81,0.00,,,0.00,WUHU21623XXSP,2013-02-25 09:18:00,
2013-02-25 03:23:00,24.1,18.9,30.04,North,0,0.0,0.0,80,0.00,,,0.00,WUHU21623XXSP,2013-02-25 09:23:00,
2013-02-25 03:28:00,23.7,18.7,30.04,North,0,0.0,0.0,80,0.00,,,0.00,WUHU21623XXSP,2013-02-25 09:28:00,
2013-02-25 03:33:00,23.5,18.5,30.04,North,0,0.0,0.0,80,0.00,,,0.00,WUHU21623XXSP,2013-02-25 09:33:00,
2013-02-25 03:38:00,23.5,18.3,30.04,North,0,0.0,0.0,80,0.00,,,0.00,WUHU21623XXSP,2013-02-25 09:38:00,
2013-02-25 03:43:00,23.5,18.3,30.04,North,0,0.0,0.0,80,0.00,,,0.00,WUHU21623XXSP,2013-02-25 09:43:00,
2013-02-25 03:48:00,23.4,18.1,30.04,North,0,0.0,0.0,80,0.00,,,0.00,WUHU21623XXSP,2013-02-25 09:48:00,
2013-02-25 03:53:00,23.2,18.0,30.04,North,0,0.0,0.0,80,0.00,,,0.00,WUHU21623XXSP,2013-02-25 09:53:00,
2013-02-25 03:58:00,22.8,17.6,30.04,North,0,0.0,0.0,80,0.00,,,0.00,WUHU21623XXSP,2013-02-25 09:58:00,
2013-02-25 04:03:00,22.8,17.6,30.03,North,0,0.0,0.0,80,0.00,,,0.00,WUHU21623XXSP,2013-02-25 10:03:00,
2013-02-25 04:08:00,22.8,17.9,30.03,North,0,0.0,0.0,81,0.00,,,0.00,WUHU21623XXSP,2013-02-25 10:08:00,
2013-02-25 04:13:00,22.8,17.9,30.03,North,0,0.0,0.0,81,0.00,,,0.00,WUHU21623XXSP,2013-02-25 10:13:00,
2013-02-25 04:18:00,22.8,17.9,30.03,North,0,0.0,0.0,81,0.00,,,0.00,WUHU21623XXSP,2013-02-25 10:18:00,
2013-02-25 04:23:00,22.8,17.9,30.03,North,0,0.0,0.0,81,0.00,,,0.00,WUHU21623XXSP,2013-02-25 10:23:00,
2013-02-25 04:28:00,22.8,17.9,30.03,North,0,0.0,0.0,81,0.00,,,0.00,WUHU21623XXSP,2013-02-25 10:28:00,
2013-02-25 04:33:00,22.8,17.9,30.02,North,0,0.0,0.0,81,0.00,,,0.00,WUHU21623XXSP,2013-02-25 10:33:00,
2013-02-25 04:38:00,22.6,17.7,30.02,North,0,0.0,0.0,81,0.00,,,0.00,WUHU21623XXSP,2013-02-25 10:38:00,
2013-02-25 04:43:00,22.3,17.3,30.02,North,0,0.0,0.0,81,0.00,,,0.00,WUHU21623XXSP,2013-02-25 10:43:00,
2013-02-25 04:48:00,22.1,17.4,30.02,North,0,0.0,0.0,82,0.00,,,0.00,WUHU21623XXSP,2013-02-25 10:48:00,
2013-02-25 04:53:00,21.9,17.2,30.03,North,0,0.0,0.0,82,0.00,,,0.00,WUHU21623XXSP,2013-02-25 10:53:00,
2013-02-25 04:58:00,21.9,17.2,30.02,North,0,0.0,0.0,82,0.00,,,0.00,WUHU21623XXSP,2013-02-25 10:58:00,
2013-02-25 05:03:00,21.7,17.1,30.02,North,0,0.0,0.0,82,0.00,,,0.00,WUHU21623XXSP,2013-02-25 11:03:00,
2013-02-25 05:08:00,21.6,16.9,30.02,North,0,0.0,0.0,82,0.00,,,0.00,WUHU21623XXSP,2013-02-25 11:08:00,
2013-02-25 05:13:00,21.4,16.7,30.02,North,0,0.0,0.0,82,0.00,,,0.00,WUHU21623XXSP,2013-02-25 11:13:00,
2013-02-25 05:18:00,21.4,16.7,30.02,North,0,0.0,0.0,82,0.00,,,0.00,WUHU21623XXSP,2013-02-25 11:18:00,
2013-02-25 05:23:00,21.4,16.7,30.02,North,0,0.0,0.0,82,0.00,,,0.00,WUHU21623XXSP,2013-02-25 11:23:00,
2013-02-25 05:28:00,21.4,16.7,30.02,North,0,0.0,0.0,82,0.00,,,0.00,WUHU21623XXSP,2013-02-25 11:28:00,
2013-02-25 05:33:00,21.4,16.7,30.02,North,0,0.0,0.0,82,0.00,,,0.00,WUHU21623XXSP,2013-02-25 11:33:00,
2013-02-25 05:39:00,21.4,16.7,30.02,North,0,0.0,0.0,82,0.00,,,0.00,WUHU21623XXSP,2013-02-25 11:39:00,
2013-02-25 05:44:00,21.2,16.5,30.02,North,0,0.0,0.0,82,0.00,,,0.00,WUHU21623XXSP,2013-02-25 11:44:00,
2013-02-25 05:49:00,21.2,16.5,30.02,North,0,0.0,0.0,82,0.00,,,0.00,WUHU21623XXSP,2013-02-25 11:49:00,
2013-02-25 05:54:00,21.0,16.3,30.02,North,0,0.0,0.0,82,0.00,,,0.00,WUHU21623XXSP,2013-02-25 11:54:00,
2013-02-25 05:59:00,21.0,16.3,30.02,North,0,0.0,0.0,82,0.00,,,0.00,WUHU21623XXSP,2013-02-25 11:59:00,
2013-02-25 06:04:00,20.8,16.2,30.02,North,0,0.0,0.0,82,0.00,,,0.00,WUHU21623XXSP,2013-02-25 12:04:00,
2013-02-25 06:09:00,20.5,15.8,30.02,North,0,0.0,0.0,82,0.00,,,0.00,WUHU21623XXSP,2013-02-25 12:09:00,
2013-02-25 06:14:00,20.5,15.8,30.02,North,0,0.0,0.0,82,0.00,,,0.00,WUHU21623XXSP,2013-02-25 12:14:00,
2013-02-25 06:19:00,20.3,15.6,30.02,North,0,0.0,0.0,82,0.00,,,0.00,WUHU21623XXSP,2013-02-25 12:19:00,
2013-02-25 06:24:00,20.1,15.4,30.02,North,0,0.0,0.0,82,0.00,,,0.00,WUHU21623XXSP,2013-02-25 12:24:00,
2013-02-25 06:29:00,19.9,15.3,30.02,North,0,0.0,0.0,82,0.00,,,0.00,WUHU21623XXSP,2013-02-25 12:29:00,
2013-02-25 06:34:00,19.9,15.3,30.02,North,0,0.0,0.0,82,0.00,,,0.00,WUHU21623XXSP,2013-02-25 12:34:00,
2013-02-25 06:39:00,19.8,15.1,30.02,North,0,0.0,0.0,82,0.00,,,0.00,WUHU21623XXSP,2013-02-25 12:39:00,
2013-02-25 06:44:00,19.6,14.9,30.02,North,0,0.0,0.0,82,0.00,,,0.00,WUHU21623XXSP,2013-02-25 12:44:00,
2013-02-25 06:50:00,19.6,14.9,30.02,North,0,0.0,0.0,82,0.00,,,0.00,WUHU21623XXSP,2013-02-25 12:50:00,
2013-02-25 06:55:00,19.6,15.2,30.02,North,0,0.0,0.0,83,0.00,,,0.00,WUHU21623XXSP,2013-02-25 12:55:00,
2013-02-25 07:00:00,19.6,15.2,30.02,North,0,0.0,0.0,83,0.00,,,0.00,WUHU21623XXSP,2013-02-25 13:00:00,
2013-02-25 07:05:00,19.6,15.2,30.02,North,0,0.0,0.0,83,0.00,,,0.00,WUHU21623XXSP,2013-02-25 13:05:00,
2013-02-25 07:10:00,19.6,15.2,30.02,North,0,0.0,0.0,83,0.00,,,0.00,WUHU21623XXSP,2013-02-25 13:10:00,
2013-02-25 07:15:00,19.6,15.2,30.02,North,0,0.0,0.0,83,0.00,,,0.00,WUHU21623XXSP,2013-02-25 13:15:00,
2013-02-25 07:20:00,19.6,15.2,30.02,North,0,0.0,0.0,83,0.00,,,0.00,WUHU21623XXSP,2013-02-25 13:20:00,
2013-02-25 07:25:00,19.8,15.3,30.02,North,0,0.0,0.0,83,0.00,,,0.00,WUHU21623XXSP,2013-02-25 13:25:00,
2013-02-25 07:30:00,19.8,15.3,30.02,North,0,0.0,0.0,83,0.00,,,0.00,WUHU21623XXSP,2013-02-25 13:30:00,
2013-02-25 07:35:00,20.1,15.7,30.02,North,0,0.0,0.0,83,0.00,,,0.00,WUHU21623XXSP,2013-02-25 13:35:00,
2013-02-25 07:40:00,20.1,15.7,30.02,North,0,0.0,0.0,83,0.00,,,0.00,WUHU21623XXSP,2013-02-25 13:40:00,
2013-02-25 07:46:00,20.5,16.1,30.02,North,0,0.0,0.0,83,0.00,,,0.00,WUHU21623XXSP,2013-02-25 13:46:00,
2013-02-25 07:51:00,20.8,16.7,30.02,North,0,0.0,0.0,84,0.00,,,0.00,WUHU21623XXSP,2013-02-25 13:51:00,
2013-02-25 07:56:00,21.4,17.2,30.03,North,0,0.0,0.0,84,0.00,,,0.00,WUHU21623XXSP,2013-02-25 13:56:00,
2013-02-25 08:01:00,22.1,18.0,30.03,North,0,0.0,0.0,84,0.00,,,0.00,WUHU21623XXSP,2013-02-25 14:01:00,
2013-02-25 08:06:00,22.6,18.5,30.03,North,0,0.0,0.0,84,0.00,,,0.00,WUHU21623XXSP,2013-02-25 14:06:00,
2013-02-25 08:14:00,23.2,19.0,30.02,North,0,0.0,0.0,84,0.00,,,0.00,WUHU21623XXSP,2013-02-25 14:14:00,
2013-02-25 08:20:00,23.9,19.8,30.02,North,0,0.0,0.0,84,0.00,,,0.00,WUHU21623XXSP,2013-02-25 14:20:00,
2013-02-25 08:27:00,25.0,20.8,30.02,North,0,0.0,0.0,84,0.00,,,0.00,WUHU21623XXSP,2013-02-25 14:27:00,
2013-02-25 08:32:00,25.5,21.3,30.02,North,0,0.0,0.0,84,0.00,,,0.00,WUHU21623XXSP,2013-02-25 14:32:00,
2013-02-25 08:37:00,26.2,22.0,30.02,North,0,0.0,0.0,84,0.00,,,0.00,WUHU21623XXSP,2013-02-25 14:37:00,
2013-02-25 08:42:00,27.3,22.5,30.02,North,0,0.0,0.0,83,0.00,,,0.00,WUHU21623XXSP,2013-02-25 14:42:00,
2013-02-25 08:47:00,28.0,23.5,30.02,North,0,0.0,0.0,83,0.00,,,0.00,WUHU21623XXSP,2013-02-25 14:47:00,
2013-02-25 08:52:00,28.6,23.7,30.02,North,0,0.0,0.0,83,0.00,,,0.00,WUHU21623XXSP,2013-02-25 14:52:00,
2013-02-25 08:57:00,29.8,25.0,30.03,North,0,0.0,0.0,82,0.00,,,0.00,WUHU21623XXSP,2013-02-25 14:57:00,
2013-02-25 09:02:00,30.6,25.7,30.02,North,0,0.0,0.0,82,0.00,,,0.00,WUHU21623XXSP,2013-02-25 15:02:00,
2013-02-25 09:07:00,31.3,26.2,30.02,North,0,0.0,0.0,81,0.00,,,0.00,WUHU21623XXSP,2013-02-25 15:07:00,
2013-02-25 09:12:00,32.4,26.9,30.02,North,0,0.0,0.0,80,0.00,,,0.00,WUHU21623XXSP,2013-02-25 15:12:00,
2013-02-25 09:17:00,33.1,27.2,30.02,North,0,0.0,0.0,79,0.00,,,0.00,WUHU21623XXSP,2013-02-25 15:17:00,
2013-02-25 09:22:00,33.6,27.2,30.02,North,0,0.0,0.0,78,0.00,,,0.00,WUHU21623XXSP,2013-02-25 15:22:00,
2013-02-25 09:27:00,34.3,27.8,30.02,North,0,0.0,0.0,77,0.00,,,0.00,WUHU21623XXSP,2013-02-25 15:27:00,
2013-02-25 09:32:00,34.7,27.8,30.02,North,0,0.0,0.0,76,0.00,,,0.00,WUHU21623XXSP,2013-02-25 15:32:00,
2013-02-25 09:37:00,35.4,27.9,30.02,North,0,0.0,0.0,74,0.00,,,0.00,WUHU21623XXSP,2013-02-25 15:37:00,
2013-02-25 09:42:00,35.8,28.3,30.02,North,0,0.0,0.0,74,0.00,,,0.00,WUHU21623XXSP,2013-02-25 15:42:00,
2013-02-25 09:47:00,36.0,28.1,30.02,North,0,0.0,0.0,73,0.00,,,0.00,WUHU21623XXSP,2013-02-25 15:47:00,
2013-02-25 09:52:00,36.5,28.3,30.02,North,0,0.0,0.0,72,0.00,,,0.00,WUHU21623XXSP,2013-02-25 15:52:00,
2013-02-25 09:57:00,36.7,28.2,30.02,North,0,0.0,0.0,71,0.00,,,0.00,WUHU21623XXSP,2013-02-25 15:57:00,
2013-02-25 10:02:00,37.2,28.7,30.02,North,0,0.0,0.0,71,0.00,,,0.00,WUHU21623XXSP,2013-02-25 16:02:00,
2013-02-25 10:07:00,37.6,28.7,30.02,North,0,0.0,0.0,70,0.00,,,0.00,WUHU21623XXSP,2013-02-25 16:07:00,
2013-02-25 10:12:00,37.9,28.7,30.02,North,0,0.0,0.0,69,0.00,,,0.00,WUHU21623XXSP,2013-02-25 16:12:00,
2013-02-25 10:17:00,38.5,29.2,30.02,North,0,0.0,0.0,69,0.00,,,0.00,WUHU21623XXSP,2013-02-25 16:17:00,
2013-02-25 10:22:00,38.8,29.1,30.02,North,0,0.0,0.0,68,0.00,,,0.00,WUHU21623XXSP,2013-02-25 16:22:00,
2013-02-25 10:27:00,39.4,29.2,30.02,North,0,0.0,0.0,67,0.00,,,0.00,WUHU21623XXSP,2013-02-25 16:27:00,
2013-02-25 10:32:00,39.4,28.9,30.01,North,0,0.0,0.0,66,0.00,,,0.00,WUHU21623XXSP,2013-02-25 16:32:00,
2013-02-25 10:37:00,39.9,29.4,30.01,North,0,0.0,0.0,66,0.00,,,0.00,WUHU21623XXSP,2013-02-25 16:37:00,
2013-02-25 10:42:00,40.8,29.9,30.01,North,0,0.0,0.0,65,0.00,,,0.00,WUHU21623XXSP,2013-02-25 16:42:00,
2013-02-25 10:47:00,41.0,29.7,30.01,North,0,0.0,0.0,64,0.00,,,0.00,WUHU21623XXSP,2013-02-25 16:47:00,
2013-02-25 10:52:00,40.8,28.8,30.00,North,0,0.0,0.0,62,0.00,,,0.00,WUHU21623XXSP,2013-02-25 16:52:00,
2013-02-25 10:57:00,40.6,29.0,30.00,North,0,0.0,0.0,63,0.00,,,0.00,WUHU21623XXSP,2013-02-25 16:57:00,
2013-02-25 11:02:00,40.6,29.0,30.00,North,0,0.0,0.0,63,0.00,,,0.00,WUHU21623XXSP,2013-02-25 17:02:00,
2013-02-25 11:07:00,40.6,29.0,30.00,North,0,0.0,0.0,62,0.00,,,0.00,WUHU21623XXSP,2013-02-25 17:07:00,
2013-02-25 11:12:00,40.8,29.2,30.00,North,0,0.0,0.0,63,0.00,,,0.00,WUHU21623XXSP,2013-02-25 17:12:00,
2013-02-25 11:17:00,41.2,29.5,30.00,North,0,0.0,0.0,63,0.00,,,0.00,WUHU21623XXSP,2013-02-25 17:17:00,
2013-02-25 11:22:00,41.7,29.6,30.00,North,0,0.0,0.0,62,0.00,,,0.00,WUHU21623XXSP,2013-02-25 17:22:00,
2013-02-25 11:27:00,42.1,30.0,30.00,North,0,0.0,0.0,62,0.00,,,0.00,WUHU21623XXSP,2013-02-25 17:27:00,
2013-02-25 11:32:00,42.4,30.3,30.00,North,0,0.0,0.0,62,0.00,,,0.00,WUHU21623XXSP,2013-02-25 17:32:00,
2013-02-25 11:37:00,42.6,30.5,30.00,North,0,0.0,0.0,62,0.00,,,0.00,WUHU21623XXSP,2013-02-25 17:37:00,
2013-02-25 11:42:00,43.0,30.8,30.01,North,0,0.0,0.0,62,0.00,,,0.00,WUHU21623XXSP,2013-02-25 17:42:00,
2013-02-25 11:47:00,43.2,30.2,30.00,North,0,0.0,0.0,61,0.00,,,0.00,WUHU21623XXSP,2013-02-25 17:47:00,
2013-02-25 11:52:00,43.3,29.9,30.00,North,0,0.0,0.0,59,0.00,,,0.00,WUHU21623XXSP,2013-02-25 17:52:00,
2013-02-25 11:57:00,43.5,30.1,29.99,North,0,0.0,0.0,59,0.00,,,0.00,WUHU21623XXSP,2013-02-25 17:57:00,
2013-02-25 12:02:00,43.9,30.5,29.98,North,0,0.0,0.0,59,0.00,,,0.00,WUHU21623XXSP,2013-02-25 18:02:00,
2013-02-25 12:07:00,44.2,30.4,29.97,North,0,0.0,0.0,58,0.00,,,0.00,WUHU21623XXSP,2013-02-25 18:07:00,
2013-02-25 12:12:00,44.2,29.9,29.97,North,0,0.0,0.0,57,0.00,,,0.00,WUHU21623XXSP,2013-02-25 18:12:00,
2013-02-25 12:17:00,44.2,29.9,29.97,North,0,0.0,0.0,57,0.00,,,0.00,WUHU21623XXSP,2013-02-25 18:17:00,
2013-02-25 12:22:00,44.4,30.1,29.97,North,0,0.0,0.0,57,0.00,,,0.00,WUHU21623XXSP,2013-02-25 18:22:00,
2013-02-25 12:27:00,44.4,30.1,29.96,North,0,0.0,0.0,57,0.00,,,0.00,WUHU21623XXSP,2013-02-25 18:27:00,
2013-02-25 12:32:00,44.2,29.9,29.96,North,0,0.0,0.0,57,0.00,,,0.00,WUHU21623XXSP,2013-02-25 18:32:00,
2013-02-25 12:37:00,44.4,30.1,29.96,North,0,0.0,0.0,57,0.00,,,0.00,WUHU21623XXSP,2013-02-25 18:37:00,
2013-02-25 12:42:00,44.4,30.1,29.95,North,0,0.0,0.0,57,0.00,,,0.00,WUHU21623XXSP,2013-02-25 18:42:00,
2013-02-25 12:47:00,44.4,30.1,29.94,North,0,0.0,0.0,57,0.00,,,0.00,WUHU21623XXSP,2013-02-25 18:47:00,
2013-02-25 12:52:00,44.4,30.1,29.94,North,0,0.0,0.0,57,0.00,,,0.00,WUHU21623XXSP,2013-02-25 18:52:00,
2013-02-25 12:57:00,44.2,30.4,29.94,North,0,0.0,0.0,58,0.00,,,0.00,WUHU21623XXSP,2013-02-25 18:57:00,
2013-02-25 13:02:00,44.2,30.4,29.92,North,0,0.0,0.0,58,0.00,,,0.00,WUHU21623XXSP,2013-02-25 19:02:00,
2013-02-25 13:07:00,43.9,30.0,29.92,North,0,0.0,0.0,58,0.00,,,0.00,WUHU21623XXSP,2013-02-25 19:07:00,
2013-02-25 13:12:00,43.5,29.7,29.92,North,0,0.0,0.0,58,0.00,,,0.00,WUHU21623XXSP,2013-02-25 19:12:00,
2013-02-25 13:17:00,43.5,29.7,29.92,North,0,0.0,0.0,58,0.00,,,0.00,WUHU21623XXSP,2013-02-25 19:17:00,
2013-02-25 13:22:00,43.3,29.5,29.92,North,0,0.0,0.0,58,0.00,,,0.00,WUHU21623XXSP,2013-02-25 19:22:00,
2013-02-25 13:27:00,43.3,29.5,29.92,North,0,0.0,0.0,58,0.00,,,0.00,WUHU21623XXSP,2013-02-25 19:27:00,
2013-02-25 13:32:00,43.3,29.5,29.91,North,0,0.0,0.0,58,0.00,,,0.00,WUHU21623XXSP,2013-02-25 19:32:00,
2013-02-25 13:37:00,43.2,29.3,29.91,North,0,0.0,0.0,58,0.00,,,0.00,WUHU21623XXSP,2013-02-25 19:37:00,
2013-02-25 13:42:00,43.2,29.3,29.92,North,0,0.0,0.0,58,0.00,,,0.00,WUHU21623XXSP,2013-02-25 19:42:00,
2013-02-25 13:47:00,43.0,29.1,29.92,North,0,0.0,0.0,58,0.00,,,0.00,WUHU21623XXSP,2013-02-25 19:47:00,
2013-02-25 13:52:00,43.0,29.1,29.92,North,0,0.0,0.0,58,0.00,,,0.00,WUHU21623XXSP,2013-02-25 19:52:00,
2013-02-25 13:57:00,43.0,29.1,29.91,North,0,0.0,0.0,58,0.00,,,0.00,WUHU21623XXSP,2013-02-25 19:57:00,
2013-02-25 14:02:00,43.0,29.1,29.91,North,0,0.0,0.0,58,0.00,,,0.00,WUHU21623XXSP,2013-02-25 20:02:00,
2013-02-25 14:07:00,43.2,29.3,29.90,North,0,0.0,0.0,58,0.00,,,0.00,WUHU21623XXSP,2013-02-25 20:07:00,
2013-02-25 14:12:00,43.3,29.5,29.91,North,0,0.0,0.0,58,0.00,,,0.00,WUHU21623XXSP,2013-02-25 20:12:00,
2013-02-25 14:17:00,43.5,29.7,29.90,North,0,0.0,0.0,58,0.00,,,0.00,WUHU21623XXSP,2013-02-25 20:17:00,
2013-02-25 14:23:00,43.5,29.2,29.89,North,0,0.0,0.0,57,0.00,,,0.00,WUHU21623XXSP,2013-02-25 20:23:00,
2013-02-25 14:28:00,43.5,29.2,29.89,North,0,0.0,0.0,57,0.00,,,0.00,WUHU21623XXSP,2013-02-25 20:28:00,
2013-02-25 14:33:00,43.7,29.9,29.89,North,0,0.0,0.0,58,0.00,,,0.00,WUHU21623XXSP,2013-02-25 20:33:00,
2013-02-25 14:38:00,43.7,29.9,29.89,North,0,0.0,0.0,58,0.00,,,0.00,WUHU21623XXSP,2013-02-25 20:38:00,
2013-02-25 14:43:00,43.5,29.7,29.89,North,0,0.0,0.0,58,0.00,,,0.00,WUHU21623XXSP,2013-02-25 20:43:00,
2013-02-25 14:48:00,43.3,29.7,29.89,North,0,0.0,0.0,58,0.00,,,0.00,WUHU21623XXSP,2013-02-25 20:48:00,
2013-02-25 14:53:00,43.3,29.7,29.89,North,0,0.0,0.0,58,0.00,,,0.00,WUHU21623XXSP,2013-02-25 20:53:00,
2013-02-25 14:58:00,43.3,29.5,29.89,North,0,0.0,0.0,58,0.00,,,0.00,WUHU21623XXSP,2013-02-25 20:58:00,
2013-02-25 15:03:00,42.6,29.2,29.88,North,0,0.0,0.0,59,0.00,,,0.00,WUHU21623XXSP,2013-02-25 21:03:00,
2013-02-25 15:08:00,42.6,29.2,29.87,North,0,0.0,0.0,59,0.00,,,0.00,WUHU21623XXSP,2013-02-25 21:08:00,
2013-02-25 15:13:00,42.4,29.5,29.87,North,0,0.0,0.0,60,0.00,,,0.00,WUHU21623XXSP,2013-02-25 21:13:00,
2013-02-25 15:18:00,42.3,29.5,29.88,North,0,0.0,0.0,60,0.00,,,0.00,WUHU21623XXSP,2013-02-25 21:18:00,
2013-02-25 15:23:00,42.1,29.4,29.89,North,0,0.0,0.0,60,0.00,,,0.00,WUHU21623XXSP,2013-02-25 21:23:00,
2013-02-25 15:28:00,42.1,29.2,29.88,North,0,0.0,0.0,60,0.00,,,0.00,WUHU21623XXSP,2013-02-25 21:28:00,
2013-02-25 15:33:00,41.9,29.4,29.88,North,0,0.0,0.0,61,0.00,,,0.00,WUHU21623XXSP,2013-02-25 21:33:00,
2013-02-25 15:38:00,41.7,29.2,29.87,North,0,0.0,0.0,61,0.00,,,0.00,WUHU21623XXSP,2013-02-25 21:38:00,
2013-02-25 15:43:00,41.4,29.5,29.86,North,0,0.0,0.0,61,0.00,,,0.00,WUHU21623XXSP,2013-02-25 21:43:00,
2013-02-25 15:48:00,41.0,29.1,29.86,North,0,0.0,0.0,62,0.00,,,0.00,WUHU21623XXSP,2013-02-25 21:48:00,
2013-02-25 15:53:00,40.8,29.2,29.86,North,0,0.0,0.0,63,0.00,,,0.00,WUHU21623XXSP,2013-02-25 21:53:00,
2013-02-25 15:58:00,40.5,29.2,29.87,North,0,0.0,0.0,64,0.00,,,0.00,WUHU21623XXSP,2013-02-25 21:58:00,
2013-02-25 16:03:00,40.1,28.8,29.88,North,0,0.0,0.0,64,0.00,,,0.00,WUHU21623XXSP,2013-02-25 22:03:00,
2013-02-25 16:08:00,39.9,29.0,29.88,North,0,0.0,0.0,65,0.00,,,0.00,WUHU21623XXSP,2013-02-25 22:08:00,
2013-02-25 16:13:00,39.7,29.0,29.89,North,0,0.0,0.0,66,0.00,,,0.00,WUHU21623XXSP,2013-02-25 22:13:00,
2013-02-25 16:18:00,39.7,29.2,29.89,North,0,0.0,0.0,66,0.00,,,0.00,WUHU21623XXSP,2013-02-25 22:18:00,
2013-02-25 16:23:00,39.4,29.0,29.89,North,0,0.0,0.0,67,0.00,,,0.00,WUHU21623XXSP,2013-02-25 22:23:00,
2013-02-25 16:28:00,39.4,29.2,29.89,North,0,0.0,0.0,67,0.00,,,0.00,WUHU21623XXSP,2013-02-25 22:28:00,
2013-02-25 16:33:00,39.4,29.2,29.87,North,0,0.0,0.0,67,0.00,,,0.00,WUHU21623XXSP,2013-02-25 22:33:00,
2013-02-25 16:38:00,39.0,28.9,29.87,North,0,0.0,0.0,67,0.00,,,0.00,WUHU21623XXSP,2013-02-25 22:38:00,
2013-02-25 16:43:00,39.0,29.3,29.87,North,0,0.0,0.0,68,0.00,,,0.00,WUHU21623XXSP,2013-02-25 22:43:00,
2013-02-25 16:48:00,38.8,29.1,29.87,North,0,0.0,0.0,69,0.00,,,0.00,WUHU21623XXSP,2013-02-25 22:48:00,
2013-02-25 16:53:00,38.5,29.3,29.87,North,0,0.0,0.0,69,0.00,,,0.00,WUHU21623XXSP,2013-02-25 22:53:00,
2013-02-25 16:58:00,38.5,29.2,29.87,North,0,0.0,0.0,69,0.00,,,0.00,WUHU21623XXSP,2013-02-25 22:58:00,
2013-02-25 17:03:00,38.5,29.2,29.88,North,0,0.0,0.0,69,0.00,,,0.00,WUHU21623XXSP,2013-02-25 23:03:00,
2013-02-25 17:08:00,38.3,29.0,29.87,North,0,0.0,0.0,69,0.00,,,0.00,WUHU21623XXSP,2013-02-25 23:08:00,
2013-02-25 17:13:00,38.1,29.4,29.87,North,0,0.0,0.0,70,0.00,,,0.00,WUHU21623XXSP,2013-02-25 23:13:00,
2013-02-25 17:18:00,38.1,29.6,29.87,North,0,0.0,0.0,71,0.00,,,0.00,WUHU21623XXSP,2013-02-25 23:18:00,
2013-02-25 17:23:00,38.1,29.6,29.87,North,0,0.0,0.0,71,0.00,,,0.00,WUHU21623XXSP,2013-02-25 23:23:00,
2013-02-25 17:28:00,37.9,29.6,29.86,North,0,0.0,0.0,71,0.00,,,0.00,WUHU21623XXSP,2013-02-25 23:28:00,
2013-02-25 17:33:00,37.9,29.4,29.85,North,0,0.0,0.0,71,0.00,,,0.00,WUHU21623XXSP,2013-02-25 23:33:00,
2013-02-25 17:38:00,37.6,29.2,29.84,North,0,0.0,0.0,71,0.00,,,0.00,WUHU21623XXSP,2013-02-25 23:38:00,
2013-02-25 17:43:00,37.6,29.7,29.84,North,0,0.0,0.0,73,0.00,,,0.00,WUHU21623XXSP,2013-02-25 23:43:00,
2013-02-25 17:48:00,37.4,29.6,29.84,North,0,0.0,0.0,73,0.00,,,0.00,WUHU21623XXSP,2013-02-25 23:48:00,
2013-02-25 17:53:00,37.4,29.6,29.84,North,0,0.0,0.0,73,0.00,,,0.00,WUHU21623XXSP,2013-02-25 23:53:00,
2013-02-25 17:58:00,37.2,29.4,29.85,North,0,0.0,0.0,73,0.00,,,0.00,WUHU21623XXSP,2013-02-25 23:58:00,
2013-02-25 18:03:00,37.2,29.4,29.84,North,0,0.0,0.0,74,0.00,,,0.00,WUHU21623XXSP,2013-02-26 00:03:00,
2013-02-25 18:08:00,37.2,29.7,29.85,North,0,0.0,0.0,74,0.00,,,0.00,WUHU21623XXSP,2013-02-26 00:08:00,
2013-02-25 18:13:00,37.2,29.7,29.85,North,0,0.0,0.0,74,0.00,,,0.00,WUHU21623XXSP,2013-02-26 00:13:00,
2013-02-25 18:18:00,37.2,29.7,29.86,North,0,0.0,0.0,74,0.00,,,0.00,WUHU21623XXSP,2013-02-26 00:18:00,
2013-02-25 18:23:00,37.2,30.0,29.86,North,0,0.0,0.0,75,0.00,,,0.00,WUHU21623XXSP,2013-02-26 00:23:00,
2013-02-25 18:28:00,37.2,29.7,29.86,North,0,0.0,0.0,75,0.00,,,0.00,WUHU21623XXSP,2013-02-26 00:28:00,
2013-02-25 18:33:00,37.2,30.0,29.87,North,0,0.0,0.0,75,0.00,,,0.00,WUHU21623XXSP,2013-02-26 00:33:00,
2013-02-25 18:38:00,37.2,30.0,29.88,North,0,0.0,0.0,75,0.00,,,0.00,WUHU21623XXSP,2013-02-26 00:38:00,
2013-02-25 18:43:00,37.2,30.0,29.88,North,0,0.0,0.0,75,0.00,,,0.00,WUHU21623XXSP,2013-02-26 00:43:00,
2013-02-25 18:48:00,37.2,30.0,29.89,North,0,0.0,0.0,75,0.00,,,0.00,WUHU21623XXSP,2013-02-26 00:48:00,
2013-02-25 18:53:00,37.2,30.0,29.89,North,0,0.0,0.0,75,0.00,,,0.00,WUHU21623XXSP,2013-02-26 00:53:00,
2013-02-25 18:58:00,37.2,30.0,29.88,North,0,0.0,0.0,75,0.00,,,0.00,WUHU21623XXSP,2013-02-26 00:58:00,
2013-02-25 19:03:00,37.0,30.0,29.88,North,0,0.0,0.0,75,0.00,,,0.00,WUHU21623XXSP,2013-02-26 01:03:00,
2013-02-25 19:08:00,37.0,29.8,29.87,North,0,0.0,0.0,76,0.00,,,0.00,WUHU21623XXSP,2013-02-26 01:08:00,
2013-02-25 19:13:00,37.0,30.2,29.84,North,0,0.0,0.0,76,0.00,,,0.00,WUHU21623XXSP,2013-02-26 01:13:00,
2013-02-25 19:18:00,37.0,30.5,29.83,North,0,0.0,0.0,77,0.00,,,0.00,WUHU21623XXSP,2013-02-26 01:18:00,
2013-02-25 19:23:00,37.0,30.5,29.85,North,0,0.0,0.0,77,0.00,,,0.00,WUHU21623XXSP,2013-02-26 01:23:00,
2013-02-25 19:28:00,37.0,30.5,29.87,North,0,0.0,0.0,77,0.00,,,0.00,WUHU21623XXSP,2013-02-26 01:28:00,
2013-02-25 19:33:00,37.0,30.5,29.86,North,0,0.0,0.0,77,0.00,,,0.00,WUHU21623XXSP,2013-02-26 01:33:00,
2013-02-25 19:38:00,37.2,30.7,29.85,North,0,0.0,0.0,77,0.00,,,0.00,WUHU21623XXSP,2013-02-26 01:38:00,
2013-02-25 19:43:00,37.2,30.7,29.83,North,0,0.0,0.0,77,0.00,,,0.00,WUHU21623XXSP,2013-02-26 01:43:00,
2013-02-25 19:48:00,37.2,30.7,29.83,North,0,0.0,0.0,77,0.00,,,0.00,WUHU21623XXSP,2013-02-26 01:48:00,
2013-02-25 19:53:00,37.2,31.0,29.82,North,0,0.0,0.0,78,0.00,,,0.00,WUHU21623XXSP,2013-02-26 01:53:00,
2013-02-25 19:58:00,37.0,30.8,29.82,North,0,0.0,0.0,79,0.00,,,0.00,WUHU21623XXSP,2013-02-26 01:58:00,
2013-02-25 20:03:00,37.0,31.1,29.82,North,0,0.0,0.0,79,0.00,,,0.00,WUHU21623XXSP,2013-02-26 02:03:00,
2013-02-25 20:08:00,37.0,30.8,29.82,North,0,0.0,0.0,79,0.00,,,0.00,WUHU21623XXSP,2013-02-26 02:08:00,
2013-02-25 20:13:00,36.9,31.5,29.81,North,0,0.0,0.0,80,0.00,,,0.00,WUHU21623XXSP,2013-02-26 02:13:00,
2013-02-25 20:18:00,36.7,31.1,29.81,North,0,0.0,0.0,80,0.00,,,0.00,WUHU21623XXSP,2013-02-26 02:18:00,
2013-02-25 20:23:00,36.5,31.2,29.82,North,0,0.0,0.0,81,0.00,,,0.00,WUHU21623XXSP,2013-02-26 02:23:00,
2013-02-25 20:28:00,36.7,31.4,29.82,North,0,0.0,0.0,81,0.00,,,0.00,WUHU21623XXSP,2013-02-26 02:28:00,
2013-02-25 20:33:00,36.7,31.4,29.81,North,0,0.0,0.0,80,0.00,,,0.00,WUHU21623XXSP,2013-02-26 02:33:00,
2013-02-25 20:38:00,36.7,31.1,29.81,North,0,0.0,0.0,80,0.00,,,0.00,WUHU21623XXSP,2013-02-26 02:38:00,
2013-02-25 20:43:00,36.5,31.2,29.81,North,0,0.0,0.0,81,0.00,,,0.00,WUHU21623XXSP,2013-02-26 02:43:00,
2013-02-25 20:48:00,36.5,31.2,29.81,North,0,0.0,0.0,81,0.00,,,0.00,WUHU21623XXSP,2013-02-26 02:48:00,
2013-02-25 20:53:00,36.3,31.5,29.81,North,0,0.0,0.0,82,0.00,,,0.00,WUHU21623XXSP,2013-02-26 02:53:00,
2013-02-25 20:58:00,36.1,31.4,29.80,North,0,0.0,0.0,83,0.00,,,0.00,WUHU21623XXSP,2013-02-26 02:58:00,
2013-02-25 21:03:00,35.8,31.2,29.81,North,0,0.0,0.0,83,0.00,,,0.00,WUHU21623XXSP,2013-02-26 03:03:00,
2013-02-25 21:08:00,35.2,30.8,29.80,North,0,0.0,0.0,85,0.00,,,0.00,WUHU21623XXSP,2013-02-26 03:08:00,
2013-02-25 21:13:00,34.7,30.6,29.80,North,0,0.0,0.0,85,0.00,,,0.00,WUHU21623XXSP,2013-02-26 03:13:00,
2013-02-25 21:18:00,34.5,30.7,29.80,North,0,0.0,0.0,86,0.00,,,0.00,WUHU21623XXSP,2013-02-26 03:18:00,
2013-02-25 21:23:00,34.5,31.0,29.80,North,0,0.0,0.0,87,0.00,,,0.00,WUHU21623XXSP,2013-02-26 03:23:00,
2013-02-25 21:28:00,34.5,31.0,29.79,North,0,0.0,0.0,87,0.00,,,0.00,WUHU21623XXSP,2013-02-26 03:28:00,
2013-02-25 21:33:00,34.5,31.0,29.79,North,0,0.0,0.0,88,0.00,,,0.00,WUHU21623XXSP,2013-02-26 03:33:00,
2013-02-25 21:38:00,34.5,31.1,29.79,North,0,0.0,0.0,88,0.00,,,0.00,WUHU21623XXSP,2013-02-26 03:38:00,
2013-02-25 21:43:00,34.3,31.1,29.79,North,0,0.0,0.0,88,0.00,,,0.00,WUHU21623XXSP,2013-02-26 03:43:00,
2013-02-25 21:48:00,34.3,31.1,29.78,North,0,0.0,0.0,88,0.00,,,0.00,WUHU21623XXSP,2013-02-26 03:48:00,
2013-02-25 21:53:00,34.3,31.1,29.79,North,0,0.0,0.0,88,0.00,,,0.00,WUHU21623XXSP,2013-02-26 03:53:00,
2013-02-25 21:58:00,34.3,31.1,29.79,North,0,0.0,0.0,88,0.00,,,0.00,WUHU21623XXSP,2013-02-26 03:58:00,
2013-02-25 22:03:00,34.3,31.1,29.79,North,0,0.0,0.0,88,0.00,,,0.00,WUHU21623XXSP,2013-02-26 04:03:00,
2013-02-25 22:08:00,34.3,31.1,29.78,North,0,0.0,0.0,88,0.00,,,0.00,WUHU21623XXSP,2013-02-26 04:08:00,
2013-02-25 22:13:00,34.3,31.1,29.78,North,0,0.0,0.0,88,0.00,,,0.00,WUHU21623XXSP,2013-02-26 04:13:00,
2013-02-25 22:19:00,34.3,31.1,29.78,North,0,0.0,0.0,88,0.00,,,0.00,WUHU21623XXSP,2013-02-26 04:19:00,
2013-02-25 22:24:00,34.3,31.1,29.77,North,0,0.0,0.0,88,0.00,,,0.00,WUHU21623XXSP,2013-02-26 04:24:00,
2013-02-25 22:29:00,34.3,31.1,29.77,North,0,0.0,0.0,88,0.00,,,0.00,WUHU21623XXSP,2013-02-26 04:29:00,
2013-02-25 22:34:00,34.3,31.1,29.76,North,0,0.0,0.0,88,0.00,,,0.00,WUHU21623XXSP,2013-02-26 04:34:00,
2013-02-25 22:39:00,34.9,31.6,29.75,North,0,0.0,0.0,88,0.00,,,0.00,WUHU21623XXSP,2013-02-26 04:39:00,
2013-02-25 22:44:00,34.9,31.6,29.74,North,0,0.0,0.0,88,0.00,,,0.00,WUHU21623XXSP,2013-02-26 04:44:00,
2013-02-25 22:49:00,35.2,31.7,29.74,North,0,0.0,0.0,87,0.00,,,0.00,WUHU21623XXSP,2013-02-26 04:49:00,
2013-02-25 22:54:00,35.2,31.7,29.74,North,0,0.0,0.0,86,0.00,,,0.00,WUHU21623XXSP,2013-02-26 04:54:00,
2013-02-25 22:59:00,35.2,31.4,29.73,North,0,0.0,0.0,86,0.00,,,0.00,WUHU21623XXSP,2013-02-26 04:59:00,
2013-02-25 23:01:00,34.9,31.0,29.73,North,0,0.0,0.0,86,0.00,,,0.00,WUHU21623XXSP,2013-02-26 05:01:00,
2013-02-25 23:04:00,34.7,31.0,29.73,North,0,0.0,0.0,86,0.00,,,0.00,WUHU21623XXSP,2013-02-26 05:04:00,
2013-02-25 23:06:00,34.5,31.0,29.72,North,0,0.0,0.0,87,0.00,,,0.00,WUHU21623XXSP,2013-02-26 05:06:00,
2013-02-25 23:11:00,34.3,30.8,29.72,North,0,0.0,0.0,87,0.00,,,0.00,WUHU21623XXSP,2013-02-26 05:11:00,
2013-02-25 23:16:00,34.3,30.8,29.72,North,0,0.0,0.0,87,0.00,,,0.00,WUHU21623XXSP,2013-02-26 05:16:00,
2013-02-25 23:21:00,33.6,30.5,29.71,North,0,0.0,0.0,88,0.00,,,0.00,WUHU21623XXSP,2013-02-26 05:21:00,
2013-02-25 23:26:00,33.6,30.6,29.71,North,0,0.0,0.0,89,0.00,,,0.00,WUHU21623XXSP,2013-02-26 05:26:00,
2013-02-25 23:31:00,33.4,30.5,29.70,North,0,0.0,0.0,89,0.00,,,0.00,WUHU21623XXSP,2013-02-26 05:31:00,
2013-02-25 23:34:00,33.4,30.5,29.70,North,0,0.0,0.0,89,0.00,,,0.00,WUHU21623XXSP,2013-02-26 05:34:00,
2013-02-25 23:39:00,33.3,30.3,29.71,North,0,0.0,0.0,89,0.00,,,0.00,WUHU21623XXSP,2013-02-26 05:39:00,
2013-02-25 23:44:00,33.1,30.2,29.71,North,0,0.0,0.0,89,0.00,,,0.00,WUHU21623XXSP,2013-02-26 05:44:00,
2013-02-25 23:49:00,33.1,30.2,29.71,North,0,0.0,0.0,89,0.00,,,0.00,WUHU21623XXSP,2013-02-26 05:49:00,
2013-02-25 23:54:00,33.1,30.5,29.69,North,0,0.0,0.0,90,0.00,,,0.00,WUHU21623XXSP,2013-02-26 05:54:00,
2013-02-25 23:59:00,33.1,30.5,29.69,North,0,0.0,0.0,90,0.00,,,0.00,WUHU21623XXSP,2013-02-26 05:59:00,